Regional Weather Roundup
Issued by NWS

Home | Current Version | Previous Version | Graphics & Text | Print | Product List | Glossary On
Versions: 1 2 3 4 5 6 7 8 9 10 11 12 13 14 15 16 17 18 19 20 21 22 23 24 25 26 27 28 29 30 31 32 33 34 35 36 37 38 39 40 41 42 43 44 45 46 47 48 49 50
000
ASUS45 KPSR 290510
RWRAZ

ARIZONA HOURLY REGIONAL WEATHER ROUNDUP
NATIONAL WEATHER SERVICE PHOENIX AZ
1000 PM MST FRI AUG 28 2015

NOTE: FAIR INDICATES FEW OR NO CLOUDS BELOW 12,000 FEET WITH NO
SIGNIFICANT WEATHER AND/OR OBSTRUCTIONS TO VISIBILITY.

AZZ001>003-036-290600-
NORTHWEST ARIZONA

CITY           SKY/WX    TMP DP  RH WIND       PRES   REMARKS
BULLHEAD CITY  PTCLDY    99  48  18 E3        29.76S
KINGMAN        CLEAR     78  52  40 E5        30.01S
$$

AZZ004>008-015-016-018-290600-
NORTH CENTRAL ARIZONA

CITY           SKY/WX    TMP DP  RH WIND       PRES   REMARKS
GRAND CANYON   CLEAR     54  42  64 CALM      30.31S
WILLIAMS       CLEAR     61  50  67 S9        30.36S
PRESCOTT       CLEAR     73  54  51 S8        30.16S
FLAGSTAFF      CLEAR     55  51  86 CALM      30.34S
PAYSON         PTCLDY    75  46  35 CALM      30.18S
PAGE           CLEAR     82  38  20 SE6       30.09S
$$

AZZ009>014-017-290600-
NORTHEAST ARIZONA

CITY           SKY/WX    TMP DP  RH WIND       PRES   REMARKS
WINSLOW        PTCLDY    72  52  49 SW3       30.15S
SAINT JOHNS    PTCLDY    72  53  51 CALM      30.20R
WINDOW ROCK    CLEAR     57  47  69 CALM      30.31S
SHOW LOW       PTCLDY    64  48  55 S5        30.29S
$$

AZZ023-290600-
GREATER PHOENIX AREA

CITY           SKY/WX    TMP DP  RH WIND       PRES   REMARKS
PHOENIX        PTCLDY    99  56  23 CALM      29.79R
BUCKEYE        CLEAR     93  61  33 W3        29.79S
LUKE AFB       PTCLDY    94  66  39 SW1       29.78R
DEER VALLEY    PTCLDY    95  50  21 CALM      29.82R
SCOTTSDALE     CLEAR     98  52  21 N3        29.84R
MESA-GATEWAY   PTCLDY    91  57  31 CALM      29.85R
$$

AZZ027-028-290600-
SOUTHWEST MARICOPA COUNTY AND PINAL COUNTY

CITY           SKY/WX    TMP DP  RH WIND       PRES   REMARKS
CASA GRANDE    CLEAR     90  52  27 CALM      29.83R
GILA BEND      FAIR      96  57  27 W6        29.77S
$$

AZZ503-504-507>509-290600-
SOUTHEAST ARIZONA

CITY           SKY/WX    TMP DP  RH WIND       PRES   REMARKS
TUCSON         CLEAR     88  58  36 S7        29.96S
DAVIS-MONTHAN  CLEAR     85  62  45 SE3       29.95S
NOGALES        CLEAR     78  55  44 NE5       30.07S
SIERRA VISTA   CLEAR     77  56  49 SW6       30.14S
DOUGLAS        PTCLDY    76  60  57 SE7       30.10S
SAFFORD        PTCLDY    80  63  55 NW5       29.97S
$$

AZZ020-021-025-026-031-290600-
SOUTHWEST ARIZONA

CITY           SKY/WX    TMP DP  RH WIND       PRES   REMARKS
YUMA           PTCLDY   100  65  31 SW7       29.74R HX 103
$$

CAZ031-033-041-043-047-048-061-290600-
SOUTHERN CALIFORNIA

CITY           SKY/WX    TMP DP  RH WIND       PRES   REMARKS
DOWNTOWN L.A.  CLEAR     77  63  61 CALM      29.85R
L.A. AIRPORT   CLEAR     76  66  71 SW7       29.86R
SAN DIEGO      PTCLDY    77  70  79 NW3       29.89R
BURBANK        CLEAR     82  63  52 SE7       29.87R
ONTARIO        CLEAR     83  52  34 NW6       29.89R
RIVERSIDE      CLEAR     85  53  33 CALM      29.88R
PALM SPRINGS   CLEAR    102  47  15 NW13G18   29.78R
EL CENTRO NAS  CLEAR     99  50  19 SW14      29.73S
IMPERIAL       CLEAR     99  52  20 W13       29.71R
BLYTHE         CLEAR    101  60  25 W6        29.74R HX 101
NEEDLES        CLEAR    100  49  17 W6        29.77S
$$

NVZ020-UTZ003-290600-
SOUTHERN NEVADA-UTAH

CITY           SKY/WX    TMP DP  RH WIND       PRES   REMARKS
LAS VEGAS      MOCLDY    96  53  23 S3        29.83F
SALT LAKE CITY PTCLDY    80  38  22 S12       30.05S
$$

NMZ009-TXZ055-290600-
NEW MEXICO-WEST TEXAS

CITY           SKY/WX    TMP DP  RH WIND       PRES   REMARKS
ALBUQUERQUE    MOCLDY    76  47  35 E25G37    30.23R
EL PASO        MOCLDY    77  58  51 SE8       30.12S
$$


........................KEY........................
SKY/WX - SKY CONDITION/WEATHER
TMP    - TEMPERATURE IN FAHRENHEIT
DP     - DEW POINT IN FAHRENHEIT
RH     - RELATIVE HUMIDITY IN PERCENT
WIND   - DIRECTION AND SPEED IN MILES PER HOUR (MPH)
VRB    - VARIABLE WIND DIRECTION
PRES   - MEAN SEA LEVEL PRESSURE IN INCHES OF MERCURY
         F - FALLING PRESSURE   R - RISING PRESSURE
         S - STEADY PRESSURE
VSB    - VISIBILITY IN MILES
HX     - HEAT INDEX IN FAHRENHEIT
WCI    - WIND CHILL INDEX IN FAHRENHEIT
TC     - TEMPERATURE IN CELSIUS WHICH IS ALSO KNOWN AS
         TEMPERATURE IN CENTIGRADE
AFB    - AIR FORCE BASE
         LUKE AFB IS LUKE AIR FORCE BASE
         DAVIS-MONTHAN IS DAVIS-MONTHAN AIR FORCE BASE
NAS    - NAVAL AIR STATION
         EL CENTRO NAS IS EL CENTRO NAVAL AIR STATION
N/A    - NOT AVAILABLE



USA.gov is the U.S. government's official web portal to all federal, state and local government web resources and services.